[[{"header":{"parameterUnit":"m.s-1","parameterCategory":2,"la1":30.2991,"la2":30.254,"lo1":-89.0895,"lo2":-89.0444,"dy":0.0017,"dx":0.0017,"nx":28,"ny":28,"refTime":"2023-10-29T09:00:00:Z","depth":"0","parameterNumber":2,"parameterNumberName":"U-component_of_CURRENTS"},"data":[0,0,0,0,0,0,0,0,0,0,0,0,0,0,0,0,0,0,0,0,0,0,0,0,0,0,0,0,0,0,0,0,0,0,0,0,0,0,0,0,0,0,0,0,0,0,0,0,0,0,0,0,0,0,0,0,0,0,0.3476,0.3476,0,0.3516,0.3517,0.3518,0.3526,0.3526,0.3525,0.3525,0.3609,0.3612,0.3614,0,0,0,0,0,0,0,0,0,0,0,0,0,0.3587,0.3584,0.3475,0.3476,0.3476,0.3516,0.3517,0.3518,0.3526,0.3526,0.3525,0.3524,0.3608,0.3611,0.3615,0,0,0,0,0,0,0,0,0,0,0,0,0,0.3575,0.3583,0.3475,0.3484,0.3485,0.3516,0.3517,0.3518,0.3526,0.3526,0.3525,0.3524,0.3607,0.3611,0.3615,0.3654,0,0,0.3627,0.3629,0,0,0,0,0,0,0,0,0.3576,0.3571,0.3482,0.3483,0.3485,0.3514,0.3587,0.3565,0.3526,0.3512,0.3525,0.3524,0.3581,0.3587,0.3598,0.3658,0.3662,0.3628,0.363,0.3632,0.3633,0,0,0,0,0,0,0,0.3576,0.3571,0.3493,0.3483,0.3484,0.3548,0.3544,0.3584,0.3552,0.3514,0.3514,0.3516,0.3582,0.3594,0.36,0.3663,0.3628,0.3631,0.3634,0.3635,0.3796,0.3798,0,0,0,0,0,0,0.3558,0.357,0.3492,0.3495,0.3527,0.3546,0.3542,0.3507,0.3551,0.3556,0.3516,0.3516,0.3588,0.3595,0.3603,0.3675,0.3632,0.3636,0.3638,0.3794,0.3796,0.3798,0,0,0,0,0,0,0.356,0.3549,0.349,0.3535,0.3531,0.3543,0.3505,0.3508,0.352,0.3552,0.3558,0.3526,0.3587,0.3598,0.3653,0.3677,0.3638,0.3641,0.3792,0.3795,0.3797,0.3804,0,0,0,0,0,0,0.3562,0.3549,0.353,0.3532,0.3528,0.3515,0.3506,0.3509,0.3522,0.3522,0.3563,0.3569,0.3588,0.3647,0.3657,0.3682,0.3644,0.3789,0.3793,0.3796,0.3801,0.3807,0.3811,0,0,0,0,0,0.3565,0.354,0.3528,0.352,0.3495,0.3516,0.3521,0.353,0.3523,0.3537,0.3568,0.3568,0.3676,0.3652,0.3663,0.369,0.3788,0.3792,0.3796,0.3799,0.3806,0.3811,0,0,0,0,0,0,0.3584,0.3539,0.3525,0.3487,0.3502,0.3516,0.353,0.3533,0.3567,0.3568,0.3593,0.3604,0.3669,0.3681,0.3653,0.3749,0.3732,0.3738,0.373,0.3737,0.3741,0.3734,0.3648,0,0,0,0,0,0.3575,0.354,0.3528,0.3504,0.3507,0.3519,0.353,0.3536,0.3561,0.3573,0.3602,0.3642,0.3696,0.3714,0.3765,0.381,0.3816,0.3836,0.3841,0.3845,0.3849,0.3888,0.3896,0.3812,0.3812,0.3812,0,0,0.3582,0.355,0.3534,0.3507,0.3517,0.353,0.3525,0.3542,0.3562,0.358,0.3625,0.3669,0.3718,0.3777,0.3805,0.3785,0.387,0.385,0.3853,0.3855,0.3893,0.3901,0.3908,0.3815,0.3814,0.3814,0,0,0.3582,0.3543,0.3521,0.353,0.3534,0.3546,0.3549,0.3567,0.3584,0.3625,0.366,0.3717,0.3773,0.3823,0.3852,0.3914,0.3907,0.3928,0.3932,0.3969,0.3976,0.3982,0.3983,0.399,0.3915,0.3915,0.3915,0,0.3598,0.3546,0.3531,0.3524,0.3533,0.355,0.3557,0.3586,0.3624,0.3649,0.3639,0.3755,0.3796,0.3881,0.3905,0.3925,0.3929,0.39,0.3973,0.3979,0.3985,0.3986,0.3992,0.3916,0.3915,0.3915,0.3915,0,0.3587,0.3556,0.3554,0.3536,0.3554,0.3566,0.3593,0.3625,0.364,0.3666,0.3746,0.3803,0.3866,0.3894,0.3917,0.3993,0.3976,0.3983,0.3949,0.3993,0.3992,0.3998,0.3917,0.3916,0.3916,0.3916,0,0,0.3595,0.3549,0.3551,0.3536,0.3556,0.3566,0.3614,0.3658,0.369,0.3732,0.3777,0.3875,0.39,0.3938,0.3981,0.401,0.4056,0.4008,0.401,0.3994,0.4111,0.4073,0.4076,0.4069,0.4071,0.4072,0.4086,0,0.3595,0.3559,0.3553,0.3555,0.3542,0.3579,0.3621,0.367,0.3714,0.3769,0.3832,0.3897,0.3919,0.3951,0.3992,0.4061,0.4077,0.405,0.4086,0.4086,0.4034,0.4085,0.3952,0.3952,0.4092,0.4093,0.4094,0,0.359,0.3556,0.3537,0.3532,0.3536,0.3558,0.362,0.3663,0.3755,0.3789,0.386,0.3908,0.3997,0.3988,0.4092,0.4071,0.4092,0.4117,0.4119,0.4087,0.4062,0.3937,0.3958,0.3853,0.4104,0.4103,0.4102,0,0.3575,0.3554,0.3527,0.3527,0.3533,0.3553,0.3585,0.3669,0.3714,0.3809,0.3855,0.3942,0.401,0.4049,0.4124,0.4104,0.4213,0.4189,0.4164,0.4159,0.4057,0.4041,0.3968,0.4238,0.4238,0.4238,0.4238,0,0.3558,0.3543,0.3514,0.3495,0.3494,0.3528,0.3566,0.362,0.3711,0.3772,0.3868,0.3936,0.4031,0.4109,0.4132,0.4183,0.4222,0.4175,0.4172,0.4055,0.404,0.3952,0.3903,0.4238,0.4238,0.4238,0.4238,0,0.353,0.3515,0.3476,0.3467,0.3472,0.3475,0.3533,0.3566,0.3676,0.3762,0.3794,0.3949,0.4053,0.4132,0.4217,0.4209,0.4119,0.4242,0.4085,0.4064,0.3906,0.3863,0.3652,0.3548,0.4187,0.4186,0.4185,0,0.3499,0.3471,0.3437,0.3413,0.3403,0.3417,0.3432,0.3528,0.3577,0.3765,0.3804,0.3952,0.4046,0.4169,0.4187,0.4209,0.4089,0.4075,0.4018,0.3887,0.3838,0.3673,0.3589,0.3873,0.387,0.3867,0.3865,0,0.3426,0.342,0.3375,0.3329,0.332,0.3318,0.3358,0.3388,0.3524,0.3613,0.3742,0.3835,0.4014,0.4005,0.4074,0.407,0.3864,0.4022,0.3934,0.3628,0.3397,0.3299,0.3856,0.3843,0.3845,0.3847,0.3848,0.3849,0.3363,0.3312,0.3255,0.3209,0.3205,0.3192,0.316,0.3234,0.3287,0.3385,0.3579,0.3668,0.3799,0.3891,0.3857,0.3738,0.372,0.362,0.3589,0.3442,0.3299,0.3798,0.3762,0.3763,0.3765,0.3766,0.3767,0,0.3217,0.3174,0.3137,0.3057,0.301,0.3059,0.3075,0.3031,0.3031,0.3194,0.3288,0.3411,0.3427,0.3497,0.3485,0.334,0.3171,0.3228,0.2968,0.2919,0.3411,0.3359,0.3177,0.3177,0.3177,0.3177,0.3177,0.3177,0.3129,0.302,0.2994,0.2862,0.283,0.2728,0.2705,0.2684,0.2752,0.2793,0.2867,0.2998,0.3204,0.3226,0.31,0.3011,0.276,0.2612,0.2603,0.2972,0.3005,0.3037,0.2977,0.2717,0.2716,0.1992,0.1987,0.1983]},{"header":{"parameterUnit":"m.s-1","parameterCategory":2,"la1":30.2991,"la2":30.254,"lo1":-89.0895,"lo2":-89.0444,"dy":0.0017,"dx":0.0017,"nx":28,"ny":28,"refTime":"2023-10-29T09:00:00:Z","depth":"0","parameterNumber":3,"parameterNumberName":"V-component_of_CURRENTS"},"data":[0,0,0,0,0,0,0,0,0,0,0,0,0,0,0,0,0,0,0,0,0,0,0,0,0,0,0,0,0,0,0,0,0,0,0,0,0,0,0,0,0,0,0,0,0,0,0,0,0,0,0,0,0,0,0,0,0,0,0.0259,0.0258,0,0.0206,0.0206,0.0205,0.0165,0.0164,0.0164,0.0164,0.0054,0.0051,0.0049,0,0,0,0,0,0,0,0,0,0,0,0,0,0.0244,0.0245,0.0259,0.0258,0.0258,0.0207,0.0206,0.0205,0.0165,0.0164,0.0164,0.0164,0.0055,0.0052,0.0049,0,0,0,0,0,0,0,0,0,0,0,0,0,0.0226,0.0245,0.0259,0.0233,0.023,0.0207,0.0206,0.0205,0.0165,0.0164,0.0164,0.0164,0.0056,0.0052,0.0048,0.0031,0,0,0.0036,0.0034,0,0,0,0,0,0,0,0,0.0227,0.0226,0.0237,0.0234,0.0231,0.0193,0.016,0.0144,0.0165,0.0188,0.0164,0.0163,0.0096,0.0089,0.0079,0.0026,0.0021,0.0035,0.0033,0.0031,0.003,0,0,0,0,0,0,0,0.0228,0.0228,0.0237,0.0237,0.0233,0.0196,0.0193,0.0157,0.0143,0.0186,0.0183,0.018,0.0094,0.0083,0.0076,0.002,0.0036,0.0032,0.003,0.0028,-0.0061,-0.0061,0,0,0,0,0,0,0.0242,0.023,0.0239,0.0235,0.0229,0.0197,0.0194,0.0205,0.0145,0.0136,0.018,0.0178,0.009,0.0081,0.0072,0.0066,0.0031,0.0028,0.0025,-0.0062,-0.0061,-0.0061,0,0,0,0,0,0,0.0242,0.0244,0.0241,0.0231,0.0228,0.0198,0.021,0.0204,0.0197,0.0141,0.0131,0.018,0.0089,0.0077,0.0049,0.0061,0.0026,0.0022,-0.0062,-0.0062,-0.0061,0.0043,0,0,0,0,0,0,0.0242,0.0245,0.0255,0.0233,0.0229,0.024,0.021,0.0203,0.0195,0.0192,0.0137,0.0126,0.0088,0.0056,0.0045,0.0054,0.0019,-0.0062,-0.0062,-0.0061,0.0039,0.0046,0.0052,0,0,0,0,0,0.0242,0.0263,0.0256,0.0256,0.0246,0.0241,0.0236,0.0211,0.0196,0.0201,0.0163,0.0128,0.0048,0.0053,0.0041,0.0049,-0.0062,-0.0062,-0.0061,0.0036,0.0045,0.0052,0,0,0,0,0,0,0.0258,0.0261,0.0252,0.0272,0.0262,0.0235,0.0238,0.0219,0.0193,0.0187,0.0133,0.012,0.0098,0.0056,0.0063,0.002,-0.0015,-0.0017,0.0064,0.0071,0.0078,0.011,0.0016,0,0,0,0,0,0.0268,0.0288,0.0276,0.0291,0.0292,0.0266,0.0259,0.0243,0.0218,0.0207,0.017,0.0124,0.0088,0.0068,0.0029,0.0009,-0.0021,0.0003,0.0009,0.0015,0.0031,-0.0002,0.0004,-0.0061,-0.0061,-0.0061,0,0,0.0276,0.0281,0.029,0.0296,0.0287,0.0299,0.0262,0.0261,0.0268,0.0198,0.0195,0.0147,0.0087,0.0068,0.0053,0.0036,0.0017,0.0016,0.0022,0.0034,-0.0001,0.0006,0.0012,-0.0061,-0.0061,-0.0061,0,0,0.0308,0.0311,0.034,0.034,0.0337,0.0323,0.0328,0.0308,0.0299,0.0284,0.0237,0.0205,0.0146,0.0115,0.0088,0.0105,0.0054,0.0082,0.0143,0.0111,0.0117,0.0122,0.0097,0.0099,0.0085,0.0085,0.0085,0,0.0316,0.0355,0.0344,0.037,0.0379,0.0342,0.037,0.0356,0.0327,0.0327,0.0295,0.0224,0.0171,0.0155,0.0159,0.0123,0.0097,0.0123,0.0123,0.0127,0.013,0.0103,0.0104,0.009,0.009,0.0089,0.0089,0,0.0371,0.0398,0.0417,0.0443,0.0447,0.0465,0.045,0.045,0.0427,0.0407,0.0386,0.0318,0.0277,0.025,0.0208,0.0205,0.0177,0.0139,0.0112,0.0144,0.0113,0.0112,0.0097,0.0096,0.0094,0.0093,0,0,0.0407,0.0449,0.0457,0.0486,0.0491,0.0505,0.052,0.053,0.0552,0.0501,0.0521,0.0446,0.0407,0.0374,0.0315,0.0284,0.0278,0.0229,0.0225,0.0222,0.0216,0.0207,0.0204,0.0241,0.0242,0.0242,0.0188,0,0.0457,0.0528,0.053,0.0591,0.0627,0.0608,0.0634,0.0631,0.0615,0.0622,0.0551,0.0534,0.0454,0.0437,0.0396,0.0311,0.0279,0.0297,0.017,0.0167,0.017,0.0204,0.0245,0.0202,0.0187,0.0186,0.0186,0,0.0519,0.0561,0.0634,0.0686,0.0701,0.0727,0.077,0.0786,0.0777,0.0764,0.0729,0.0667,0.0617,0.054,0.0422,0.0437,0.034,0.0267,0.0262,0.022,0.0157,0.0164,0.02,0.0053,0.0184,0.0184,0.0184,0,0.0573,0.0636,0.0703,0.072,0.0767,0.08,0.0822,0.0833,0.087,0.0855,0.0875,0.0787,0.0762,0.0629,0.047,0.0445,0.0343,0.0282,0.0184,0.0182,0.0176,0.0173,0.0072,0.0202,0.0202,0.0202,0.0202,0,0.0638,0.0691,0.0738,0.0778,0.0864,0.0868,0.0953,0.096,0.0991,0.1058,0.0956,0.0986,0.0784,0.0694,0.0524,0.0367,0.0379,0.0212,0.0174,0.0212,0.0213,0.005,-0.0038,0.02,0.02,0.0201,0.0201,0,0.0693,0.0722,0.0803,0.0868,0.0897,0.0959,0.1046,0.1106,0.1122,0.1207,0.1208,0.1143,0.1032,0.0826,0.0621,0.046,0.0211,0.0223,0.0287,0.0258,0.0021,-0.0062,-0.0199,-0.026,0.0108,0.0108,0.0107,0,0.073,0.078,0.0873,0.0928,0.0965,0.1055,0.1126,0.117,0.1244,0.1316,0.137,0.1292,0.1271,0.0972,0.0667,0.0384,0.0219,0.0218,0.017,0.0033,-0.009,-0.0149,-0.0195,0.0199,0.0199,0.02,0.02,0,0.0799,0.083,0.0893,0.1008,0.1094,0.1201,0.1306,0.139,0.1464,0.1546,0.1639,0.1629,0.1366,0.111,0.0716,0.0504,0.0136,0.0216,0.0056,-0.0031,-0.0084,-0.0168,0.0207,0.0203,0.0203,0.0202,0.0202,0.0202,0.0846,0.0897,0.098,0.109,0.1194,0.1336,0.1438,0.1567,0.1715,0.1856,0.184,0.1879,0.1513,0.0993,0.0684,0.0167,0.0146,0.0007,-0.0083,-0.0131,-0.0186,0.0204,0.0163,0.0163,0.0162,0.0162,0.0161,0,0.0895,0.0955,0.1056,0.119,0.131,0.1362,0.1551,0.1668,0.1863,0.2004,0.2089,0.1965,0.1504,0.1009,0.0317,-0.0057,-0.0193,-0.0264,-0.0342,-0.0378,-0.0041,-0.0032,-0.0094,-0.0094,-0.0094,-0.0094,-0.0094,-0.0094,0.0923,0.1014,0.1064,0.1262,0.1362,0.1537,0.1653,0.1839,0.1987,0.2173,0.2229,0.2237,0.1891,0.0667,-0.0161,-0.0359,-0.0596,-0.0647,-0.0789,-0.057,-0.0551,-0.0534,-0.0546,-0.0715,-0.0716,-0.1058,-0.1062,-0.1065]}],[{"header":{"parameterUnit":"m.s-1","parameterCategory":2,"la1":30.2991,"la2":30.254,"lo1":-89.0895,"lo2":-89.0444,"dy":0.0017,"dx":0.0017,"nx":28,"ny":28,"refTime":"2023-10-29T09:00:00:Z","depth":"2","parameterNumber":2,"parameterNumberName":"U-component_of_CURRENTS"},"data":[0,0,0,0,0,0,0,0,0,0,0,0,0,0,0,0,0,0,0,0,0,0,0,0,0,0,0,0,0,0,0,0,0,0,0,0,0,0,0,0,0,0,0,0,0,0,0,0,0,0,0,0,0,0,0,0,0,0,0.3013,0.3013,0,0.3025,0.3025,0.3025,0.3021,0.3022,0.3022,0.3022,0.3015,0.3015,0.3015,0,0,0,0,0,0,0,0,0,0,0,0,0,0.2964,0.2965,0.3013,0.3013,0.3014,0.3025,0.3025,0.3025,0.3021,0.3022,0.3022,0.3022,0.3016,0.3015,0.3015,0,0,0,0,0,0,0,0,0,0,0,0,0,0.2978,0.2965,0.3012,0.3016,0.3017,0.3025,0.3025,0.3025,0.3021,0.3022,0.3022,0.3022,0.3016,0.3015,0.3015,0.3009,0,0,0.3014,0.3013,0,0,0,0,0,0,0,0,0.2977,0.2979,0.3015,0.3016,0.3017,0.3026,0.3006,0.302,0.3021,0.3015,0.3022,0.3022,0.302,0.3019,0.3015,0.3009,0.3009,0.3014,0.3013,0.3013,0.3013,0,0,0,0,0,0,0,0.2976,0.2979,0.3014,0.3016,0.3017,0.301,0.3012,0.3008,0.3013,0.3016,0.3017,0.3025,0.3019,0.3016,0.3015,0.3008,0.3014,0.3013,0.3013,0.3013,0.306,0.3062,0,0,0,0,0,0,0.2984,0.2978,0.3013,0.3014,0.3002,0.3012,0.3013,0.3019,0.3013,0.3014,0.3024,0.3024,0.3016,0.3016,0.3015,0.3063,0.3013,0.3013,0.3013,0.3059,0.306,0.3062,0,0,0,0,0,0,0.2983,0.2987,0.3013,0.3,0.3003,0.3013,0.3019,0.302,0.3034,0.3021,0.302,0.3041,0.3017,0.3016,0.3035,0.3061,0.3013,0.3012,0.3057,0.3059,0.3061,0.3125,0,0,0,0,0,0,0.2981,0.2986,0.2995,0.3,0.3004,0.3036,0.3019,0.302,0.3039,0.304,0.3035,0.3033,0.3017,0.3036,0.3035,0.306,0.3012,0.3055,0.3058,0.3061,0.3121,0.3129,0.3136,0,0,0,0,0,0.2979,0.2991,0.2995,0.3,0.3015,0.3037,0.3039,0.3043,0.304,0.3054,0.3054,0.3034,0.3053,0.3037,0.3035,0.306,0.3054,0.3057,0.306,0.3117,0.3127,0.3135,0,0,0,0,0,0,0.2966,0.2992,0.2996,0.3013,0.3034,0.3039,0.3052,0.3056,0.3065,0.3068,0.305,0.305,0.308,0.3063,0.3045,0.3084,0.3051,0.3054,0.3095,0.3104,0.3112,0.3124,0.3012,0,0,0,0,0,0.2971,0.2992,0.3011,0.3027,0.304,0.305,0.306,0.3067,0.3076,0.308,0.3075,0.3076,0.309,0.3091,0.3096,0.3111,0.3113,0.3128,0.3136,0.3142,0.3153,0.3187,0.3199,0.3073,0.3073,0.3073,0,0,0.2967,0.2988,0.2997,0.3028,0.3041,0.3061,0.3056,0.3083,0.31,0.3078,0.3098,0.3106,0.3103,0.3127,0.3138,0.3115,0.3179,0.3146,0.3152,0.3159,0.3192,0.3204,0.3215,0.3075,0.3075,0.3075,0,0,0.2975,0.2995,0.3015,0.3037,0.3071,0.3082,0.3097,0.3114,0.3126,0.3148,0.3146,0.3175,0.3173,0.3186,0.319,0.3243,0.3225,0.3241,0.3281,0.3314,0.3325,0.3334,0.3353,0.3363,0.3237,0.3237,0.3237,0,0.2971,0.2996,0.3024,0.3049,0.3067,0.3095,0.3115,0.3135,0.3155,0.3174,0.3164,0.3204,0.3205,0.3248,0.327,0.3261,0.327,0.3245,0.3325,0.3334,0.3342,0.3359,0.337,0.324,0.324,0.324,0.3239,0,0.2988,0.3012,0.3029,0.307,0.3095,0.3122,0.3155,0.3184,0.3201,0.3218,0.327,0.3279,0.3304,0.3312,0.3307,0.3371,0.3355,0.3336,0.3301,0.3359,0.3372,0.3383,0.3245,0.3244,0.3243,0.3242,0,0,0.2962,0.3027,0.3032,0.3051,0.3109,0.3127,0.3177,0.3224,0.3259,0.3289,0.333,0.3373,0.3389,0.3397,0.3401,0.3431,0.3502,0.3412,0.3413,0.343,0.3571,0.3509,0.3513,0.3497,0.3499,0.3501,0.3556,0,0.2964,0.3007,0.3043,0.3081,0.3103,0.3152,0.3193,0.3244,0.3288,0.3335,0.3376,0.3416,0.3417,0.3436,0.3475,0.3501,0.3532,0.3488,0.3513,0.3514,0.3451,0.3524,0.3245,0.3267,0.3565,0.3567,0.3568,0,0.296,0.2993,0.303,0.3087,0.3102,0.3133,0.3209,0.3251,0.3338,0.3371,0.3435,0.3464,0.3537,0.3515,0.3601,0.3573,0.3585,0.3594,0.3596,0.3524,0.3471,0.3258,0.3273,0.3585,0.3583,0.3582,0.3581,0,0.2917,0.2977,0.3006,0.3025,0.3099,0.3131,0.3177,0.3264,0.3309,0.3403,0.3452,0.3526,0.3579,0.3613,0.3659,0.3633,0.3737,0.3695,0.3648,0.3643,0.3403,0.3373,0.375,0.375,0.375,0.375,0.375,0,0.2897,0.2916,0.299,0.3004,0.3041,0.3108,0.3164,0.3225,0.332,0.338,0.3472,0.3531,0.3611,0.3679,0.3688,0.3715,0.3766,0.3677,0.3664,0.3417,0.339,0.3657,0.3646,0.3752,0.3751,0.3751,0.3751,0,0.284,0.2889,0.2922,0.3,0.3021,0.3052,0.3144,0.3185,0.3298,0.3383,0.3417,0.356,0.3652,0.3718,0.3784,0.3757,0.3774,0.3763,0.347,0.3421,0.3644,0.3635,0.3708,0.3707,0.3706,0.3704,0.3704,0,0.2812,0.2827,0.2902,0.2916,0.2951,0.3006,0.3039,0.3151,0.3203,0.3387,0.342,0.3564,0.3633,0.373,0.3705,0.3713,0.3773,0.3443,0.3344,0.3665,0.3645,0.3638,0.3631,0.3046,0.304,0.3035,0.3031,0,0.2758,0.2793,0.2821,0.2851,0.2883,0.2915,0.2981,0.3013,0.3154,0.3237,0.3351,0.3429,0.3558,0.3448,0.3487,0.3446,0.3419,0.3341,0.3758,0.311,0.3048,0.3026,0.304,0.2986,0.299,0.2994,0.2996,0.2998,0.2713,0.2713,0.275,0.2763,0.2794,0.2799,0.2785,0.2861,0.2914,0.2999,0.3167,0.319,0.3241,0.316,0.3065,0.2992,0.3224,0.3054,0.3067,0.3085,0.3009,0.2949,0.2853,0.2856,0.286,0.2862,0.2865,0,0.2625,0.2634,0.265,0.2649,0.2625,0.2688,0.2715,0.2673,0.2667,0.2785,0.285,0.2661,0.2611,0.2659,0.2489,0.2493,0.2436,0.2376,0.2266,0.2315,0.2358,0.2239,0.1882,0.1878,0.1875,0.1872,0,0,0.2581,0.2546,0.2544,0.2466,0.2469,0.2397,0.238,0.2347,0.238,0.2339,0.233,0.2521,0.2615,0.2218,0.2167,0.1993,0.2132,0.1916,0.2715,0.2638,0.2676,0.2773,0.2651,0,0,0,0,0]},{"header":{"parameterUnit":"m.s-1","parameterCategory":2,"la1":30.2991,"la2":30.254,"lo1":-89.0895,"lo2":-89.0444,"dy":0.0017,"dx":0.0017,"nx":28,"ny":28,"refTime":"2023-10-29T09:00:00:Z","depth":"2","parameterNumber":3,"parameterNumberName":"V-component_of_CURRENTS"},"data":[0,0,0,0,0,0,0,0,0,0,0,0,0,0,0,0,0,0,0,0,0,0,0,0,0,0,0,0,0,0,0,0,0,0,0,0,0,0,0,0,0,0,0,0,0,0,0,0,0,0,0,0,0,0,0,0,0,0,0.0248,0.0248,0,0.0205,0.0204,0.0204,0.0172,0.0172,0.0171,0.0171,0.0104,0.0102,0.0101,0,0,0,0,0,0,0,0,0,0,0,0,0,0.0244,0.0245,0.0248,0.0248,0.0247,0.0205,0.0204,0.0204,0.0172,0.0172,0.0171,0.0171,0.0105,0.0103,0.0101,0,0,0,0,0,0,0,0,0,0,0,0,0,0.0228,0.0245,0.0248,0.0226,0.0224,0.0205,0.0204,0.0204,0.0172,0.0172,0.0171,0.0171,0.0105,0.0103,0.0101,0.0094,0,0,0.0093,0.0092,0,0,0,0,0,0,0,0,0.0229,0.0228,0.023,0.0228,0.0225,0.0194,0.0178,0.0166,0.0172,0.0192,0.0171,0.0171,0.0132,0.0128,0.012,0.0091,0.0088,0.0093,0.0092,0.0091,0.009,0,0,0,0,0,0,0,0.023,0.0229,0.0231,0.023,0.0227,0.0198,0.0196,0.0175,0.0164,0.019,0.0187,0.0183,0.0131,0.0123,0.0118,0.0087,0.0093,0.0091,0.009,0.0089,0.0042,0.0043,0,0,0,0,0,0,0.024,0.0231,0.0232,0.023,0.0226,0.0199,0.0196,0.0204,0.0165,0.0159,0.0183,0.0182,0.0127,0.0121,0.0116,0.0118,0.0091,0.0089,0.0087,0.0042,0.0042,0.0043,0,0,0,0,0,0,0.024,0.0241,0.0234,0.0228,0.0226,0.02,0.0208,0.0203,0.0199,0.016,0.0153,0.0184,0.0126,0.0119,0.0105,0.0115,0.0088,0.0086,0.0042,0.0042,0.0043,0.0115,0,0,0,0,0,0,0.024,0.0241,0.0249,0.023,0.0226,0.0233,0.0208,0.0203,0.0196,0.0194,0.0159,0.0152,0.0126,0.0108,0.0102,0.0111,0.0084,0.0042,0.0042,0.0042,0.0112,0.0118,0.0122,0,0,0,0,0,0.024,0.0257,0.025,0.0249,0.0238,0.0234,0.023,0.0209,0.0197,0.0202,0.0177,0.0153,0.0105,0.0107,0.01,0.0108,0.0042,0.0042,0.0042,0.011,0.0116,0.0122,0,0,0,0,0,0,0.0257,0.0255,0.0246,0.0261,0.0251,0.0229,0.0231,0.0216,0.0199,0.0197,0.0159,0.0151,0.014,0.0113,0.0115,0.0094,0.0068,0.0067,0.0122,0.0128,0.0132,0.0154,0.0082,0,0,0,0,0,0.0265,0.028,0.0267,0.0278,0.0278,0.0255,0.025,0.0237,0.022,0.0212,0.0186,0.0156,0.0135,0.0124,0.0099,0.0092,0.0062,0.009,0.0095,0.0099,0.0111,0.0072,0.0075,0.0044,0.0044,0.0044,0,0,0.0273,0.0274,0.0281,0.0282,0.0274,0.0284,0.0252,0.0253,0.0259,0.0208,0.0208,0.0174,0.0136,0.0127,0.0119,0.0107,0.0092,0.0099,0.0104,0.0113,0.0073,0.0076,0.0079,0.0044,0.0044,0.0044,0,0,0.03,0.0301,0.0322,0.0322,0.0317,0.0306,0.031,0.0292,0.0285,0.028,0.0242,0.0218,0.0186,0.0161,0.0145,0.0161,0.0119,0.0149,0.0194,0.0156,0.0159,0.0161,0.013,0.0128,0.0152,0.0152,0.0152,0,0.0307,0.0337,0.0325,0.0346,0.0353,0.0322,0.0346,0.0335,0.0312,0.0312,0.029,0.0241,0.0204,0.0194,0.0197,0.0174,0.0147,0.0178,0.0164,0.0165,0.0166,0.0134,0.0131,0.0156,0.0155,0.0155,0.0155,0,0.0352,0.0373,0.0388,0.0408,0.0412,0.0428,0.0415,0.0415,0.0399,0.0382,0.0367,0.0314,0.0286,0.0265,0.0237,0.0226,0.0204,0.0176,0.0154,0.0174,0.0138,0.0134,0.0161,0.016,0.0159,0.0158,0,0,0.0379,0.0414,0.0419,0.0445,0.045,0.0462,0.0477,0.0484,0.0502,0.0461,0.0474,0.042,0.0385,0.0363,0.0316,0.0281,0.0256,0.0237,0.0234,0.0216,0.0179,0.0165,0.0159,0.0226,0.0226,0.0225,0.0154,0,0.0419,0.0476,0.0479,0.0532,0.0563,0.055,0.0573,0.0571,0.0557,0.0559,0.05,0.0487,0.0424,0.0411,0.0367,0.0288,0.0249,0.0279,0.0155,0.0151,0.0144,0.0155,0.0179,0.0117,0.0149,0.0149,0.0148,0,0.0466,0.0502,0.0563,0.0612,0.0625,0.0649,0.0686,0.0701,0.0689,0.0678,0.0646,0.0594,0.0542,0.0481,0.036,0.0382,0.0291,0.0221,0.0216,0.0177,0.013,0.01,0.0108,0.0141,0.0142,0.0142,0.0143,0,0.0506,0.0562,0.0618,0.0635,0.068,0.0709,0.0731,0.0738,0.0769,0.0751,0.0765,0.0682,0.0657,0.0531,0.0385,0.0371,0.0249,0.0207,0.0107,0.0105,0.0088,0.0085,0.0118,0.0118,0.0118,0.0118,0.0118,0,0.0556,0.06,0.0646,0.068,0.0757,0.0765,0.0837,0.0844,0.0867,0.0919,0.0831,0.0847,0.0668,0.0574,0.0422,0.0263,0.0273,0.0122,0.0087,0.0114,0.0114,0.0104,0.0104,0.0115,0.0116,0.0116,0.0117,0,0.0594,0.0621,0.0692,0.0754,0.0782,0.0837,0.0917,0.0966,0.0976,0.1041,0.1041,0.0973,0.0856,0.0668,0.047,0.0328,0.0162,0.0098,0.0146,0.0118,0.0031,0.0035,-0.002,-0.0021,-0.0022,-0.0022,-0.0023,0,0.062,0.0662,0.075,0.08,0.0834,0.0916,0.0979,0.102,0.108,0.1127,0.1167,0.1078,0.1036,0.0742,0.0472,0.0208,0.0166,0.0049,0.002,0.0047,0.0018,0.0023,0.0028,0.0023,0.0023,0.0023,0.0023,0,0.067,0.0699,0.0756,0.0862,0.094,0.1037,0.113,0.1197,0.1259,0.1318,0.1372,0.134,0.1078,0.0821,0.0461,0.0277,0.0091,0.0038,0.0052,0.0059,0.0083,0.0056,0.006,0.0021,0.0021,0.0021,0.0022,0.0022,0.0704,0.0749,0.0825,0.0926,0.1021,0.1145,0.1232,0.1336,0.1453,0.1543,0.1516,0.1477,0.119,0.0732,0.0418,0.0082,0.0097,-0.003,-0.0028,-0.0026,-0.0003,0.0018,-0.0051,-0.0051,-0.0052,-0.0052,-0.0052,0,0.0741,0.0794,0.0884,0.1005,0.1111,0.1164,0.1325,0.1415,0.1562,0.1635,0.1674,0.1401,0.1117,0.0777,0.0291,0.0004,-0.0025,-0.01,-0.0067,-0.0062,-0.0059,-0.0037,-0.0096,-0.0097,-0.0098,-0.0099,0,0,0.0762,0.084,0.0884,0.1056,0.1149,0.1304,0.1401,0.1537,0.1628,0.1698,0.1676,0.1618,0.1225,0.0864,0.0473,0.0191,0.0126,0.0126,0.0194,0.0285,0.0291,0.0014,0.0057,0,0,0,0,0]}],[{"header":{"parameterUnit":"m.s-1","parameterCategory":2,"la1":30.2991,"la2":30.254,"lo1":-89.0895,"lo2":-89.0444,"dy":0.0017,"dx":0.0017,"nx":28,"ny":28,"refTime":"2023-10-29T09:00:00:Z","depth":"4","parameterNumber":2,"parameterNumberName":"U-component_of_CURRENTS"},"data":[0,0,0,0,0,0,0,0,0,0,0,0,0,0,0,0,0,0,0,0,0,0,0,0,0,0,0,0,0,0,0,0,0,0,0,0,0,0,0,0,0,0,0,0,0,0,0,0,0,0,0,0,0,0,0,0,0,0,0.1983,0.1984,0,0.2034,0.2034,0.2035,0.2085,0.2086,0.2087,0.2088,0.2115,0.2115,0.2114,0,0,0,0,0,0,0,0,0,0,0,0,0,0.1869,0.1871,0.1983,0.1984,0.1985,0.2034,0.2034,0.2035,0.2084,0.2086,0.2087,0.2088,0.2115,0.2115,0.2114,0,0,0,0,0,0,0,0,0,0,0,0,0,0.1915,0.1872,0.1983,0.2019,0.2024,0.2034,0.2034,0.2035,0.2084,0.2086,0.2087,0.2089,0.2115,0.2115,0.2114,0.208,0,0,0.2113,0.2113,0,0,0,0,0,0,0,0,0.1912,0.1919,0.2013,0.2017,0.2022,0.2059,0.2004,0.205,0.2084,0.2056,0.2088,0.209,0.2096,0.2097,0.2097,0.2081,0.2082,0.2113,0.2113,0.2113,0.2113,0,0,0,0,0,0,0,0.1909,0.1916,0.1999,0.2014,0.2019,0.2013,0.2021,0.2013,0.2062,0.2059,0.2064,0.2076,0.2098,0.2097,0.2098,0.2083,0.2113,0.2113,0.2112,0.2112,0.2179,0.2181,0,0,0,0,0,0,0.1914,0.1914,0.1997,0.2001,0.1975,0.2014,0.2023,0.2041,0.2063,0.207,0.2075,0.2078,0.2097,0.2098,0.2099,0.2178,0.2113,0.2112,0.2112,0.2177,0.218,0.2182,0,0,0,0,0,0,0.1911,0.1921,0.1995,0.1961,0.1971,0.2015,0.2035,0.2042,0.209,0.2076,0.2082,0.2122,0.2098,0.21,0.2134,0.2175,0.2112,0.2112,0.2175,0.2178,0.2181,0.2259,0,0,0,0,0,0,0.1908,0.192,0.195,0.1962,0.1974,0.2034,0.2034,0.2042,0.2094,0.21,0.2117,0.2119,0.21,0.2135,0.2133,0.2173,0.2111,0.2172,0.2176,0.218,0.2253,0.2264,0.2273,0,0,0,0,0,0.1903,0.1932,0.1951,0.1963,0.2009,0.2036,0.2041,0.2073,0.2095,0.2121,0.2137,0.2121,0.2159,0.2136,0.2134,0.2174,0.2171,0.2175,0.218,0.2249,0.2262,0.2273,0,0,0,0,0,0,0.1892,0.194,0.1962,0.2004,0.2036,0.2047,0.2081,0.21,0.2131,0.2151,0.2137,0.2139,0.2187,0.2171,0.2146,0.2207,0.2166,0.217,0.2219,0.2231,0.224,0.2255,0.2111,0,0,0,0,0,0.1905,0.1949,0.1981,0.202,0.2042,0.2071,0.2094,0.2117,0.2139,0.2158,0.2169,0.2183,0.2195,0.2208,0.2212,0.2237,0.2236,0.2267,0.2276,0.2284,0.2298,0.233,0.2344,0.2197,0.2197,0.2197,0,0,0.1908,0.1946,0.1969,0.2023,0.2053,0.2084,0.209,0.2141,0.2173,0.2152,0.221,0.2219,0.2211,0.2245,0.2266,0.2242,0.2327,0.229,0.2297,0.2306,0.2336,0.235,0.2363,0.22,0.22,0.2199,0,0,0.1925,0.1977,0.2015,0.2048,0.211,0.2126,0.2153,0.2193,0.2226,0.2269,0.227,0.2308,0.2322,0.2327,0.2327,0.2394,0.2379,0.2405,0.2463,0.2494,0.2506,0.2517,0.2538,0.255,0.2407,0.2408,0.2408,0,0.1932,0.1982,0.2028,0.207,0.2103,0.2151,0.2187,0.222,0.2267,0.2296,0.2306,0.236,0.2359,0.2396,0.2427,0.2416,0.2431,0.2415,0.2507,0.2517,0.2526,0.2545,0.2557,0.2412,0.2411,0.2411,0.2411,0,0.1959,0.2015,0.2043,0.2114,0.2153,0.2198,0.2246,0.2299,0.2347,0.2373,0.2445,0.2452,0.2486,0.2496,0.2482,0.2554,0.2542,0.2515,0.2474,0.2546,0.2561,0.2572,0.2418,0.2416,0.2415,0.2414,0,0,0.1926,0.204,0.2054,0.2096,0.2184,0.2212,0.2285,0.2349,0.2402,0.2463,0.2523,0.2565,0.2593,0.2598,0.2597,0.2628,0.271,0.2615,0.2614,0.2631,0.2788,0.2606,0.26,0.2706,0.2708,0.271,0.2772,0,0.1937,0.2016,0.2072,0.2147,0.2189,0.2262,0.2318,0.2388,0.2452,0.2522,0.2566,0.2623,0.2623,0.2656,0.2694,0.2707,0.2744,0.2696,0.272,0.272,0.2546,0.2607,0.2718,0.278,0.2783,0.2785,0.2786,0,0.1933,0.1995,0.2072,0.2173,0.2199,0.2254,0.2362,0.242,0.2526,0.2577,0.2658,0.2694,0.2772,0.2751,0.2833,0.281,0.2819,0.2819,0.2821,0.2631,0.2558,0.2694,0.2806,0.2804,0.2803,0.2801,0.28,0,0.1874,0.1985,0.2052,0.2087,0.2208,0.2268,0.2338,0.2448,0.2506,0.2629,0.2688,0.2774,0.2834,0.2871,0.2902,0.2883,0.2971,0.293,0.2773,0.2761,0.2871,0.2859,0.2985,0.2985,0.2985,0.2985,0.2985,0,0.1841,0.1897,0.204,0.2076,0.2157,0.2255,0.2349,0.243,0.2549,0.2613,0.2725,0.2776,0.2875,0.2932,0.2937,0.2893,0.3005,0.2796,0.2766,0.2903,0.2894,0.2879,0.2866,0.2987,0.2987,0.2986,0.2986,0,0.1762,0.1858,0.1942,0.2087,0.2136,0.22,0.235,0.2404,0.2541,0.2632,0.2679,0.2813,0.288,0.2947,0.3002,0.2918,0.2897,0.2851,0.3011,0.2988,0.2657,0.2648,0.2672,0.2666,0.2661,0.2657,0.2653,0,0.1725,0.1766,0.1934,0.1985,0.2062,0.2173,0.2236,0.2384,0.2438,0.2623,0.2644,0.2774,0.284,0.2778,0.2859,0.2851,0.2814,0.2784,0.2704,0.2657,0.2628,0.2626,0.2623,0.2645,0.2644,0.2643,0.2641,0,0.1654,0.1737,0.1809,0.1915,0.2001,0.2072,0.2182,0.2204,0.2363,0.2511,0.2539,0.2563,0.2631,0.2656,0.2677,0.2663,0.2788,0.2731,0.274,0.2665,0.2625,0.2601,0.2604,0.2624,0.2627,0.2628,0.2629,0,0.1608,0.1638,0.1744,0.1817,0.1913,0.194,0.2014,0.207,0.2139,0.2336,0.2338,0.2472,0.2603,0.256,0.2576,0.2553,0.2502,0.2402,0.2427,0.2447,0.2342,0.2258,0.2126,0,0,0,0,0,0.1547,0.1564,0.1629,0.1696,0.178,0.1834,0.1954,0.2028,0.2183,0.2141,0.2231,0.2276,0.2293,0.236,0.2288,0.2478,0.2519,0.2383,0.2418,0.2528,0.2548,0.2443,0,0,0,0,0,0,0.1508,0.1568,0.1587,0.1574,0.1591,0.166,0.1731,0.184,0.1823,0.199,0.2011,0.2133,0.2187,0.2309,0.2244,0.2264,0.2236,0.2469,0.2463,0.2517,0.2535,0.2551,0.245,0,0,0,0,0]},{"header":{"parameterUnit":"m.s-1","parameterCategory":2,"la1":30.2991,"la2":30.254,"lo1":-89.0895,"lo2":-89.0444,"dy":0.0017,"dx":0.0017,"nx":28,"ny":28,"refTime":"2023-10-29T09:00:00:Z","depth":"4","parameterNumber":3,"parameterNumberName":"V-component_of_CURRENTS"},"data":[0,0,0,0,0,0,0,0,0,0,0,0,0,0,0,0,0,0,0,0,0,0,0,0,0,0,0,0,0,0,0,0,0,0,0,0,0,0,0,0,0,0,0,0,0,0,0,0,0,0,0,0,0,0,0,0,0,0,0.022,0.022,0,0.0197,0.0196,0.0196,0.0181,0.0181,0.0181,0.0181,0.0149,0.0148,0.0147,0,0,0,0,0,0,0,0,0,0,0,0,0,0.0214,0.0215,0.022,0.022,0.0219,0.0197,0.0196,0.0196,0.0181,0.0181,0.0181,0.0181,0.0149,0.0148,0.0147,0,0,0,0,0,0,0,0,0,0,0,0,0,0.0207,0.0215,0.022,0.0209,0.0208,0.0197,0.0196,0.0196,0.0181,0.0181,0.0181,0.0181,0.0149,0.0148,0.0147,0.0144,0,0,0.0143,0.0143,0,0,0,0,0,0,0,0,0.0207,0.0207,0.0211,0.021,0.0208,0.0191,0.0182,0.0178,0.0181,0.0192,0.0181,0.0181,0.0162,0.016,0.0156,0.0142,0.0141,0.0143,0.0143,0.0142,0.0142,0,0,0,0,0,0,0,0.0208,0.0208,0.0211,0.021,0.0209,0.0192,0.0191,0.0181,0.0178,0.0191,0.0189,0.0186,0.0161,0.0158,0.0155,0.014,0.0143,0.0142,0.0142,0.0141,0.0121,0.0122,0,0,0,0,0,0,0.0212,0.0209,0.0212,0.021,0.0207,0.0193,0.0192,0.0197,0.0178,0.0175,0.0186,0.0186,0.0159,0.0157,0.0154,0.0164,0.0142,0.0141,0.0141,0.0121,0.0121,0.0122,0,0,0,0,0,0,0.0213,0.0213,0.0213,0.0208,0.0207,0.0193,0.0199,0.0197,0.0198,0.0175,0.0172,0.0191,0.0159,0.0156,0.0152,0.0162,0.0141,0.014,0.0121,0.0121,0.0122,0.0175,0,0,0,0,0,0,0.0213,0.0214,0.0221,0.0209,0.0207,0.0215,0.0199,0.0196,0.0196,0.0195,0.0178,0.0175,0.0159,0.0154,0.0151,0.016,0.0139,0.0121,0.0121,0.0121,0.0173,0.0177,0.018,0,0,0,0,0,0.0213,0.0226,0.0222,0.0222,0.0218,0.0215,0.0214,0.0203,0.0197,0.0202,0.019,0.0175,0.0153,0.0154,0.015,0.0159,0.0121,0.0121,0.0121,0.0171,0.0176,0.018,0,0,0,0,0,0,0.0226,0.0225,0.022,0.0233,0.0227,0.0213,0.0218,0.0209,0.0203,0.0204,0.0181,0.0177,0.0176,0.0159,0.016,0.0152,0.0133,0.0133,0.0172,0.0176,0.018,0.0194,0.0138,0,0,0,0,0,0.0233,0.0244,0.0236,0.0246,0.0246,0.0233,0.0231,0.0225,0.0216,0.0214,0.0199,0.0184,0.0174,0.0169,0.0156,0.0156,0.0129,0.0156,0.016,0.0164,0.0171,0.0134,0.0135,0.0123,0.0123,0.0123,0,0,0.024,0.0241,0.0247,0.0249,0.0245,0.0254,0.0233,0.0236,0.0245,0.0211,0.0219,0.0198,0.0176,0.0175,0.0173,0.0164,0.0152,0.0164,0.0167,0.0173,0.0135,0.0136,0.0137,0.0123,0.0123,0.0123,0,0,0.026,0.0263,0.0279,0.0281,0.0279,0.0273,0.0278,0.0268,0.0267,0.0269,0.0245,0.023,0.0218,0.0201,0.0191,0.0206,0.0173,0.0201,0.0233,0.0197,0.0198,0.0198,0.0166,0.0163,0.0203,0.0203,0.0203,0,0.0267,0.029,0.0282,0.0298,0.0306,0.0286,0.0306,0.0302,0.0291,0.0293,0.028,0.0253,0.0231,0.0227,0.023,0.0216,0.0191,0.0221,0.0203,0.0202,0.0202,0.0169,0.0165,0.0206,0.0206,0.0205,0.0205,0,0.0299,0.0318,0.0329,0.0345,0.0351,0.0366,0.0361,0.0364,0.0358,0.0348,0.0343,0.0308,0.0292,0.0279,0.0262,0.025,0.0232,0.0212,0.0194,0.0207,0.017,0.0166,0.021,0.0209,0.0208,0.0207,0,0,0.0315,0.0346,0.0351,0.0372,0.0381,0.0393,0.0409,0.0419,0.0434,0.041,0.0422,0.0389,0.0364,0.0351,0.0318,0.0286,0.0257,0.0254,0.0251,0.0228,0.018,0.0164,0.0156,0.0234,0.0233,0.0233,0.0157,0,0.0343,0.0387,0.0394,0.0438,0.0463,0.046,0.0482,0.0485,0.0479,0.0483,0.0442,0.0438,0.0394,0.0388,0.0349,0.0283,0.0246,0.0279,0.0167,0.0164,0.0152,0.0151,0.0231,0.0153,0.0152,0.0151,0.015,0,0.0373,0.0402,0.0452,0.0498,0.051,0.0533,0.0568,0.0584,0.0578,0.0574,0.0552,0.0516,0.0473,0.0431,0.0323,0.0348,0.0273,0.0213,0.0208,0.0173,0.0138,0.0136,0.0141,0.0141,0.0142,0.0143,0.0143,0,0.0394,0.0444,0.0491,0.0506,0.055,0.0578,0.0602,0.0613,0.064,0.0631,0.0641,0.0576,0.0555,0.0451,0.0331,0.0327,0.0205,0.0181,0.0093,0.009,0.0105,0.0105,0.01,0.01,0.01,0.0101,0.0101,0,0.0422,0.0461,0.051,0.0537,0.0603,0.0619,0.0681,0.0692,0.0713,0.075,0.0692,0.0694,0.0559,0.0473,0.0351,0.0211,0.0217,0.01,0.007,0.0129,0.0132,0.0101,0.0102,0.0098,0.0098,0.0099,0.0099,0,0.0438,0.0468,0.0528,0.0589,0.0618,0.0665,0.0742,0.078,0.0796,0.084,0.0843,0.0782,0.0671,0.0524,0.0355,0.0248,0.0106,0.0052,0.0133,0.0109,0.001,0.0015,-0.0051,-0.0053,-0.0054,-0.0055,-0.0055,0,0.0448,0.0482,0.0568,0.0612,0.0647,0.0721,0.0777,0.0821,0.0863,0.0892,0.0913,0.0831,0.0769,0.0523,0.0358,0.0123,0.0084,0.0006,-0.0,0.0017,-0.0006,0.0001,0.0007,-0.0057,-0.0057,-0.0057,-0.0058,0,0.0468,0.0501,0.055,0.0643,0.0714,0.0797,0.0876,0.0914,0.0967,0.0982,0.0967,0.0849,0.0725,0.0527,0.0346,0.0175,0.0054,-0.0005,-0.0005,-0.0012,0.001,-0.0011,-0.0004,-0.0061,-0.0061,-0.006,-0.006,0,0.0482,0.0516,0.0584,0.0667,0.0759,0.0847,0.089,0.0943,0.0989,0.1017,0.1008,0.0879,0.0807,0.0554,0.0387,0.0217,0.0167,0.0099,0.0094,0.0096,0.0154,0.0204,0.0169,0,0,0,0,0,0.049,0.0529,0.0602,0.0695,0.0787,0.0848,0.0946,0.0981,0.1035,0.103,0.1022,0.0906,0.067,0.057,0.0397,0.035,0.0127,0.0139,0.0044,-0.0081,-0.0077,-0.0035,0,0,0,0,0,0,0.0495,0.0557,0.0595,0.0706,0.0773,0.0882,0.095,0.0989,0.0985,0.1008,0.0886,0.0844,0.0612,0.0767,0.0387,0.0339,0.0249,0.0036,0.0031,-0.0083,-0.008,-0.0076,-0.0032,0,0,0,0,0]}]]